Regional Weather Roundup
Issued by NWS Boston, MA

Home | Current Version | Previous Version | Text Only | Print | Product List | Glossary On
Versions: 1 2 3 4 5 6 7 8 9 10 11 12 13 14 15 16 17 18 19 20 21 22 23 24 25 26 27 28 29 30 31 32 33 34 35 36 37 38 39 40 41 42 43 44 45 46 47 48 49 50
066
ASUS41 KBOX 281310
RWRBOX

REGIONAL WEATHER ROUNDUP
NATIONAL WEATHER SERVICE TAUNTON MA
900 AM EDT TUE MAR 28 2017

NOTE:  "FAIR" INDICATES FEW OR NO CLOUDS BELOW 12,000 FEET WITH NO
SIGNIFICANT WEATHER AND/OR OBSTRUCTIONS TO VISIBILITY.

MAZALL-281400-
EASTERN MASSACHUSETTS

CITY           SKY/WX    TMP DP  RH WIND       PRES   REMARKS
BOSTON         CLOUDY    37  35  92 NE6       30.05R
BEVERLY        CLOUDY    37  36  96 NE3       30.04S
LAWRENCE       CLOUDY    34  34 100 E3        30.06S FOG
BEDFORD        CLOUDY    37  33  85 E6        30.02S
BLUE HILL        N/A     34  34 100 VRB3      30.01R
NORWOOD        CLOUDY    38  36  92 E3        30.05R
MARSHFIELD     CLOUDY    39  37  93 VRB5      30.04R
PLYMOUTH       CLOUDY    37  36  96 NE5       30.04R
TAUNTON        CLOUDY    37  36  96 NE5       30.03R
NEW BEDFORD    LGT RAIN  38  36  92 E7        30.02F
$$

MAZALL-281400-
CAPE COD AND THE ISLANDS

CITY           SKY/WX    TMP DP  RH WIND       PRES   REMARKS
FALMOUTH       CLOUDY    37  37 100 MISG      30.04S
HYANNIS        CLOUDY    39  39 100 NE6       30.02S
CHATHAM        CLOUDY    40  40 100 NE5       30.04S
PROVINCETOWN   CLOUDY    40  38  93 E7        30.05S
NANTUCKET      FOG       40  39  97 NE12      30.03R VSB 1
MARTHAS VNYRD  CLOUDY    39  38  96 NE6       30.04R FOG
$$

MAZALL-281400-
CENTRAL AND WESTERN MASSACHUSETTS

CITY           SKY/WX    TMP DP  RH WIND       PRES   REMARKS
WORCESTER      FOG       34  33  96 E5        29.99R VSB<1/4 WCI  30
FITCHBURG      CLOUDY    36  35  96 SE5       30.03S FOG
ORANGE         CLOUDY    36  36 100 S5        29.99S FOG
SPRINGFIELD    CLOUDY    40  40  99 CALM      29.99S FOG
WESTFIELD      CLOUDY    39  39 100 CALM      30.00R FOG
NORTH ADAMS    PTSUNNY   41  38  89 VRB6      29.95S
PITTSFIELD     CLOUDY    37  36  96 CALM      29.93F FOG
$$

RIZALL-281400-
RHODE ISLAND

CITY           SKY/WX    TMP DP  RH WIND       PRES   REMARKS
PROVIDENCE     CLOUDY    39  37  92 E5        30.04R FOG
NEWPORT        FOG       38  38 100 CALM      30.03R VSB 1/4
BLOCK ISLAND   LGT RAIN  38  38 100 E16       30.00F WCI  29
SMITHFIELD     FOG       37  37 100 E6        30.02S VSB<1/4
WESTERLY       LGT RAIN  39  39 100 E10       30.02S
$$

CTZALL-281400-
CONNECTICUT

CITY           SKY/WX    TMP DP  RH WIND       PRES   REMARKS
BRADLEY INTL   CLOUDY    40  39  97 CALM      30.01R FOG
HARTFORD       CLOUDY    41  39  93 NE3       30.00F FOG
BRIDGEPORT     CLOUDY    42  40  92 NE12      29.99S
DANBURY        CLOUDY    41  40  96 E5        29.98S
GROTON         CLOUDY    40  38  93 E9        30.00S FOG
NEW HAVEN      CLOUDY    41  40  96 E7        30.00R
CHESTER        NOT AVBL
MERIDEN        LGT RAIN  41  39  93 CALM      29.99F FOG
WILLIMANTIC    CLOUDY    42  40  92 E3        30.01S
OXFORD         FOG       39  36  87 E5        29.98F VSB 3/4
$$

MEZ002-015-021-024-NHZ003-005-008-011-012-014-VTZ005-008-281400-
NORTHERN NEW ENGLAND

CITY           SKY/WX    TMP DP  RH WIND       PRES   REMARKS
PORTLAND ME    CLOUDY    34  31  88 CALM      30.06R
BANGOR ME      CLOUDY    31  30  96 NE5       30.04S WCI  26
CONCORD NH     CLOUDY    35  32  88 SE3       30.03S
MANCHESTER NH  CLOUDY    35  31  85 E5        30.02F WCI  31
NASHUA NH      CLOUDY    35  34  96 E5        30.04F WCI  31
PORTSMOUTH NH  CLOUDY    35  32  90 CALM      30.04R
JAFFREY NH     CLOUDY    35  34  96 CALM      29.98S
KEENE NH       CLOUDY    37  35  92 CALM      30.00R
BURLINGTON VT  CLOUDY    41  39  93 CALM      29.90S
MT. WASHINGTON FOG       36  36 100 W30         N/A  VSB 0   WCI  22
$$

NYZ052-076-281400-
EASTERN NEW YORK

CITY           SKY/WX    TMP DP  RH WIND       PRES   REMARKS
ALBANY         CLOUDY    44  40  85 CALM      29.95S FOG
NEW YORK CITY  CLOUDY    44  40  85 NE15      29.95F FOG
$$

ANZALL-281400-
MARINE OBSERVATIONS

STATION/POSITION TIME  TEMP    WIND        PRES    VSBY  WAVE
                       AIR SEA DIR/SP/G                  HT/PER
                 (UTC) (F)     (DEG/KT/KT) (MB)    (MI)  (FT/S)
BOSTON BUOY      1150   38 40   20/  4/  4 1017.3          4/ 6
BUZZARDS BAY     1200   36      60/ 11/ 12 1017.1S
NANTUCKET SOUND  1250      38              1017.0S         1
MASS BAY-STELLWA 1204   38 39   60/  4/  4 1016.6R         4/ 8
ISLE OF SHOALS   1200   35      40/  6/  7 1017.1R
S OF BLOCK IS    1255      40                N/A           4/ 7
$$

......................KEY.........................
  SKY/WX - SKY CONDITION/PRESENT WEATHER
  TMP    - TEMPERATURE IN FAHRENHEIT
  DWPT   - DEWPOINT IN FAHRENHEIT
  RH     - RELATIVE HUMIDITY IN PERCENT
  WIND   - DIRECTION AND SPEED IN MPH
  PRES   - MEAN SEA LEVEL PRESSURE IN INCHES OF HG
  WCI    - WIND CHILL INDEX
  VSB    - VISIBILITY IN MILES
  HX     - HEAT INDEX
  TC     - TEMPERATURE IN CELSIUS
  VRB    - VARIABLE WIND DIRECTION
  N/A    - NOT AVAILABLE




USA.gov is the U.S. government's official web portal to all federal, state and local government web resources and services.